Theta_e
323 324 323 322 321 320 320 321 320 320 319 318 318 319 318 318 318 318 317 315 314 314 314 314 314 313 313 314 314 314 314 313 311 311 310 309 309 308
323 323 324 323 322 321 321 322 322 322 321 320 319 319 319 319 318 319 317 316 315 313 314 314 314 314 314 315 315 315 315 315 314 313 311 310 310 309
323 322 322 322 323 322 322 323 323 323 323 322 320 320 319 319 318 319 318 317 315 314 313 313 314 314 315 315 315 315 315 316 316 315 314 312 311 310
322 322 323 323 322 322 323 324 324 322 322 320 323 322 320 320 319 318 318 317 315 314 314 314 313 313 315 315 315 315 315 315 316 316 315 314 313 312
322 321 323 324 324 325 325 325 324 322 321 319 322 323 321 320 319 318 318 318 315 314 313 313 313 313 314 314 315 315 315 315 314 315 316 316 315 314
322 321 321 322 323 324 325 324 321 320 319 319 321 322 321 320 319 318 317 318 316 315 313 313 313 313 313 314 314 314 314 313 313 313 315 315 315 315
321 321 323 323 324 326 323 319 319 320 320 319 320 321 321 320 319 317 317 318 317 315 313 312 313 313 312 312 313 312 312 311 311 312 313 313 315 315
321 321 326 325 326 324 321 321 319 319 319 318 318 320 322 319 318 315 316 317 316 314 312 312 313 313 312 312 311 311 310 310 310 310 314 315 315 314
326 326 326 326 323 321 320 319 318 320 319 318 318 318 318 317 315 314 315 314 313 312 312 312 312 312 311 312 312 312 310 309 310 311 313 314 314 315
327 326 325 323 322 321 320 319 319 319 318 318 317 317 317 317 315 314 313 313 312 312 312 311 311 311 311 310 310 310 309 310 312 312 313 313 313 314
327 325 324 322 321 319 319 318 318 318 318 317 316 316 317 317 316 314 314 313 313 313 313 311 310 308 311 309 309 309 310 311 310 310 311 311 312 313
326 322 322 320 317 316 315 316 317 317 316 314 315 316 316 316 315 315 314 313 313 313 313 311 310 309 310 312 309 309 309 309 310 310 310 311 312 313
321 319 318 317 315 315 314 314 314 315 315 314 314 316 316 316 315 315 315 314 313 313 312 310 310 309 309 310 311 309 309 309 309 309 309 309 311 311
315 315 316 316 315 315 314 312 312 312 313 313 313 314 314 315 315 315 315 314 312 311 312 311 309 309 310 310 309 308 309 309 309 309 309 309 310 311
311 312 312 313 313 313 312 312 312 312 311 312 312 313 315 315 314 314 313 312 310 310 309 310 309 309 309 310 309 309 308 309 309 309 309 309 309 309
303 304 307 309 310 310 311 310 311 311 311 309 312 312 312 313 312 312 311 310 309 309 308 309 307 307 308 308 309 309 308 308 309 309 309 310 309 309
299 300 300 301 304 306 306 308 308 309 309 308 309 310 310 309 309 309 309 308 307 307 307 307 307 307 307 308 308 308 308 308 308 308 309 309 309 309
298 299 299 299 299 299 300 301 303 303 304 305 305 305 305 306 306 306 306 306 306 304 305 305 305 304 306 307 307 306 307 308 307 307 307 307 308 308
293 294 296 296 296 295 296 297 298 299 300 301 301 301 301 301 302 303 304 304 304 303 303 304 305 305 305 305 305 306 305 306 306 306 306 305 305 306
288 290 291 291 292 293 292 293 294 295 296 297 298 299 300 299 299 300 301 301 301 301 302 302 301 302 302 301 301 302 303 304 305 304 304 303 303 304
284 285 287 288 289 289 290 290 290 291 292 292 293 294 295 295 296 297 297 298 297 298 298 299 299 299 299 300 300 301 301 302 303 301 302 302 302 303
281 282 283 283 285 286 286 287 287 288 288 288 289 289 289 289 290 291 293 293 294 294 294 295 295 296 296 296 297 298 297 297 298 298 299 300 301 300
279 279 280 281 281 282 283 283 284 284 285 285 286 286 287 287 287 287 287 288 288 288 288 288 289 290 291 292 293 293 293 295 295 296 299 298 299 300
Wind_Speed
32 27 25 22 18 17 15 13 12 12 12 12 9 8 7 5 2 1 3 4 5 5 4 5 4 4 4 5 5 6 7 8 9 10 10 10 9 9
33 29 28 24 22 21 18 16 14 11 10 10 9 8 7 6 5 3 3 5 6 6 5 6 7 8 8 8 8 9 9 10 11 11 11 11 10 10
35 32 30 27 26 24 21 18 16 15 13 12 11 9 9 7 7 6 5 4 4 7 6 6 8 10 10 11 12 13 13 14 14 14 14 14 13 12
37 34 32 29 28 25 23 21 19 18 17 16 15 12 11 10 10 10 9 7 6 5 6 8 8 10 11 11 12 14 14 15 16 17 17 17 16 16
40 36 34 31 28 27 25 23 21 20 20 18 17 17 14 14 13 12 12 11 10 7 9 11 11 12 13 13 15 15 15 16 18 19 20 20 20 19
41 38 36 34 31 28 26 23 22 22 21 21 19 19 17 16 15 14 14 13 12 12 11 15 14 14 15 15 15 15 17 20 21 22 21 21 23 22
44 40 37 35 32 29 26 22 20 20 21 22 20 21 20 19 18 15 15 14 14 14 16 16 15 13 13 14 15 18 21 22 22 23 23 23 21 21
46 45 39 37 32 28 26 23 21 21 22 22 21 22 20 18 17 16 16 16 17 12 16 18 16 14 15 15 16 17 20 22 23 23 21 19 21 21
49 46 38 37 33 29 27 29 27 26 25 23 23 21 18 17 17 16 16 16 15 14 17 19 18 19 17 18 20 20 20 22 22 20 19 20 20 21
48 44 43 38 32 32 32 31 28 26 28 27 26 22 21 19 19 17 15 16 17 18 20 22 19 22 17 13 15 18 18 17 16 15 17 19 20 22
49 46 40 36 36 34 33 32 30 28 28 27 25 24 23 22 22 21 19 19 20 21 19 19 21 22 20 15 11 10 12 15 17 17 18 19 21 22
42 41 36 35 31 30 26 29 30 30 27 26 24 25 24 24 23 22 21 21 22 22 21 17 19 20 23 17 7 15 16 18 19 17 19 20 20 20
37 37 37 34 31 31 29 29 27 26 28 27 27 24 25 26 25 23 22 22 21 21 21 21 22 22 22 26 25 19 18 18 19 20 22 21 21 20
26 28 31 31 31 29 28 27 28 27 26 26 26 27 28 25 24 23 23 22 22 22 21 23 25 24 21 27 27 24 23 22 21 21 22 21 20 21
23 25 24 27 27 28 25 26 27 26 23 27 27 26 23 23 25 25 25 26 27 26 26 28 26 24 24 27 30 31 30 27 24 24 23 24 25 25
19 19 19 21 24 23 22 28 30 32 29 32 24 24 22 22 23 25 26 28 29 28 27 25 24 25 28 30 31 31 31 31 28 31 34 31 28 27
7 7 8 11 16 19 21 26 25 26 21 21 21 25 25 26 26 28 28 31 33 28 26 25 27 29 30 30 33 34 35 35 34 35 34 35 32 30
13 12 10 9 8 9 12 15 17 18 19 20 20 20 20 23 25 27 29 29 28 25 26 22 25 29 32 33 34 36 35 34 33 33 34 38 39 33
9 9 10 13 11 10 11 14 16 17 18 19 18 19 18 20 23 25 25 28 28 25 23 23 27 27 31 37 37 34 36 33 30 31 30 35 39 34
7 7 9 10 12 13 13 14 16 16 18 19 20 22 22 23 24 25 25 27 27 27 28 29 28 26 28 33 36 37 33 35 33 35 36 37 40 41
7 9 12 13 13 13 15 17 17 18 19 21 22 24 25 25 25 26 26 27 27 27 29 29 32 31 32 35 39 42 40 36 36 36 37 38 41 44
6 9 11 12 14 15 17 18 19 20 21 22 23 23 22 22 25 28 28 27 28 30 32 35 38 39 39 39 42 45 45 44 40 38 37 35 36 42
6 6 8 9 10 10 12 12 14 14 15 16 16 18 18 18 19 19 20 22 25 27 28 30 30 31 34 38 42 47 48 46 43 44 45 39 40 41
Wind_Direction
203 201 197 198 199 195 190 186 185 178 183 193 188 192 195 195 187 15 5 1 351 321 287 282 295 294 298 309 317 325 330 327 325 321 319 323 326 329
206 206 206 209 206 201 201 203 208 206 198 198 198 201 204 212 230 264 302 330 340 341 299 277 275 272 274 283 292 300 305 309 311 314 312 311 311 311
210 212 210 209 208 210 213 217 221 221 219 210 210 218 226 234 244 257 267 297 309 331 328 297 280 278 276 278 281 286 290 294 295 296 298 299 299 299
208 211 210 209 212 218 222 228 233 235 233 230 230 232 239 241 241 252 258 267 274 306 308 311 302 285 278 281 285 287 289 291 292 290 287 286 287 288
212 213 213 211 214 219 223 233 238 238 237 237 236 233 238 240 242 249 253 254 256 275 294 300 293 289 281 280 287 287 289 293 294 292 287 282 279 278
216 217 220 222 222 223 230 235 237 237 237 240 238 238 238 240 246 252 255 255 260 265 281 293 288 288 286 283 284 282 288 294 296 294 290 286 278 272
219 220 223 224 225 227 226 231 234 234 233 235 235 235 236 242 251 260 261 255 257 265 280 287 292 289 289 289 287 287 287 293 292 294 287 286 283 274
220 219 221 221 223 218 225 229 231 234 238 238 238 236 240 243 251 257 254 252 264 264 277 283 287 283 288 294 282 286 293 295 291 290 286 289 280 276
221 220 220 216 214 221 231 236 242 233 235 238 242 245 247 245 253 248 247 253 260 264 275 279 282 286 288 286 283 283 292 296 296 284 284 282 286 275
219 216 220 215 217 228 232 234 235 235 237 239 242 243 245 244 244 244 248 252 259 267 269 277 290 295 295 290 292 290 296 297 299 294 290 286 288 279
214 210 211 215 220 226 230 233 234 233 241 238 238 240 241 241 240 243 248 254 260 267 274 280 301 305 305 305 299 306 307 297 299 302 300 299 290 287
194 200 206 213 219 229 226 226 230 235 231 236 243 238 238 240 241 246 250 257 263 274 283 282 293 302 309 307 300 313 310 303 297 303 310 304 291 286
195 199 203 212 218 223 230 234 234 233 235 235 238 237 238 240 244 247 249 254 264 275 287 287 287 291 286 283 294 302 300 300 297 302 303 300 290 287
184 196 209 215 216 223 224 233 239 245 238 241 232 236 231 236 241 245 248 253 265 275 283 282 279 288 287 286 291 297 295 291 291 294 301 298 293 291
206 210 207 205 213 218 225 235 235 234 239 237 236 226 230 235 241 239 245 256 264 272 277 276 277 279 277 278 283 289 295 289 291 290 290 294 292 295
179 189 196 198 200 210 215 227 231 230 233 237 237 235 228 229 236 247 256 263 265 266 272 270 269 273 275 277 280 283 284 288 294 294 296 294 291 290
214 212 194 194 194 199 205 215 219 227 219 220 227 238 243 248 251 254 259 265 267 268 271 269 269 269 268 270 276 278 283 283 288 290 290 293 286 284
239 249 244 245 234 219 214 214 214 218 224 231 234 238 244 249 253 255 260 266 261 264 269 264 269 279 275 269 272 279 281 282 285 285 286 287 288 288
244 229 231 242 239 230 230 229 228 229 232 233 237 242 250 259 261 260 259 261 260 264 268 269 269 269 275 280 282 280 284 284 286 289 290 292 296 299
249 241 238 236 238 240 249 250 250 247 247 246 247 251 254 258 262 261 260 260 265 266 267 268 270 270 273 279 283 278 277 281 284 288 289 293 294 292
230 233 237 240 246 247 249 259 263 264 264 265 264 261 259 259 259 260 262 264 267 271 274 273 270 272 275 277 279 282 284 278 279 286 291 291 291 292
237 240 244 243 242 244 249 255 261 265 269 269 268 268 265 263 262 260 262 265 269 275 279 280 278 275 274 275 277 280 283 284 284 281 280 282 287 287
261 255 253 260 262 258 257 258 261 263 265 268 272 272 269 265 263 265 266 266 271 276 279 282 284 283 280 277 277 279 281 284 287 287 281 277 272 273